Fairmont, MN

2:30 PM CST on December 10, 2016 (GMT -0600)
Fairmont Municipal

Weather History for KFRM - January, 2013

Change the Weather History Date:

Tuesday, January 29, 2013

  Actual Average Record
Temperature  
Mean Temperature 32 °F -  
Max Temperature 37 °F 24 °F 46 °F (1990)
Min Temperature 28 °F 6 °F -25 °F (1966)
Degree Days  
Heating Degree Days 32    
Moisture  
Dew Point 26 °F    
Average Humidity 73    
Maximum Humidity 80    
Minimum Humidity 69    
Precipitation  
Precipitation 0.02 in - - ()
Sea Level Pressure  
Sea Level Pressure 29.64 in    
Wind  
Wind Speed 9 mph (NNW)    
Max Wind Speed 21 mph    
Max Gust Speed 26 mph    
Visibility 5 miles    
Events      
Averages and records for this station are not official NWS values.
T = Trace of Precipitation, MM = Missing Value Source: NWS Daily Summary

Daily Weather History Graph

Daily Weather History Graph

Search for Another Location

Airport or City:

Trip Planner

Search our weather history database for the weather conditions in past years. The results will help you decide how hot, cold, wet, or windy it might be!

Date:

Astronomy

Jan. 29, 2013 Rise Set
Actual Time 7:37 AM CST 5:25 PM CST
Civil Twilight 7:06 AM CST 5:55 PM CST
Nautical Twilight 6:31 AM CST 6:30 PM CST
Astronomical Twilight 5:58 AM CST 7:04 PM CST
Moon 8:29 PM CST (1/29) 8:27 AM CST (1/29)
Length of Visible Light 10h 49m
Length of Day
9h 48m
Waning Gibbous, 93% of the Moon is Illuminated
Jan 29
Waning Gibbous
Feb 3
Last Quarter
Feb 10
New
Feb 17
First Quarter
Feb 25
Full

Hourly Weather History & Observations

Time (CST) Temp. Windchill Dew Point Humidity Pressure Visibility Wind Dir Wind Speed Gust Speed Precip Events Conditions
12:15 AM 37.4 °F - 30.2 °F 75% 29.57 in 0.5 mi Calm Calm - N/A   Overcast
12:35 AM 37.4 °F - 30.2 °F 75% 29.56 in 0.5 mi Calm Calm - 0.01 in   Overcast
12:55 AM 37.4 °F - 30.2 °F 75% 29.55 in 0.2 mi Calm Calm - 0.01 in   Overcast
1:15 AM 37.4 °F - 30.2 °F 75% 29.55 in 0.2 mi Calm Calm - N/A   Overcast
1:35 AM 37.4 °F 34.9 °F 30.2 °F 75% 29.56 in 0.2 mi SSE 3.5 mph - N/A   Overcast
1:55 AM 37.4 °F - 30.2 °F 75% 29.55 in 0.5 mi Calm Calm - N/A   Overcast
2:15 AM 37.4 °F 33.8 °F 30.2 °F 75% 29.57 in 0.8 mi SSE 4.6 mph - N/A   Overcast
2:35 AM 37.4 °F 32.1 °F 30.2 °F 75% 29.57 in 0.8 mi NW 6.9 mph - 0.01 in   Overcast
2:55 AM 37.4 °F 32.1 °F 30.2 °F 75% 29.58 in 0.8 mi NW 6.9 mph - 0.01 in   Overcast
3:15 AM 37.4 °F 30.8 °F 30.2 °F 75% 29.57 in 1.0 mi NW 9.2 mph - N/A   Overcast
3:35 AM 37.4 °F 31.4 °F 30.2 °F 75% 29.56 in 1.8 mi NNW 8.1 mph - N/A   Overcast
3:55 AM 37.4 °F 30.3 °F 30.2 °F 75% 29.57 in 2.5 mi NNW 10.4 mph - N/A   Overcast
4:15 AM 37.4 °F 30.8 °F 30.2 °F 75% 29.59 in 5.0 mi NW 9.2 mph - N/A   Overcast
4:35 AM 37.4 °F 30.3 °F 30.2 °F 75% 29.53 in 8.0 mi NNW 10.4 mph - N/A   Overcast
4:55 AM 37.4 °F 29.3 °F 30.2 °F 75% 29.58 in 10.0 mi NW 12.7 mph - N/A   Overcast
5:15 AM 37.4 °F 29.3 °F 28.4 °F 70% 29.58 in 9.0 mi NW 12.7 mph 18.4 mph N/A   Overcast
5:35 AM 37.4 °F 30.3 °F 28.4 °F 70% 29.56 in 9.0 mi NNW 10.4 mph - N/A   Overcast
5:55 AM 37.4 °F 30.8 °F 28.4 °F 70% 29.57 in 10.0 mi NNW 9.2 mph - N/A   Overcast
6:15 AM 37.4 °F 31.4 °F 28.4 °F 70% 29.56 in 9.0 mi NNW 8.1 mph - N/A   Overcast
6:35 AM 37.4 °F 30.3 °F 28.4 °F 70% 29.57 in 10.0 mi NW 10.4 mph - N/A   Overcast
6:55 AM 37.4 °F 30.8 °F 28.4 °F 70% 29.59 in 10.0 mi NW 9.2 mph - N/A   Overcast
7:15 AM 37.4 °F 29.3 °F 28.4 °F 70% 29.60 in 9.0 mi NW 12.7 mph - N/A   Overcast
7:35 AM 35.6 °F 27.1 °F 28.4 °F 75% 29.62 in 8.0 mi NW 12.7 mph - N/A   Overcast
7:55 AM 35.6 °F 26.6 °F 28.4 °F 75% 29.62 in 9.0 mi NW 13.8 mph - N/A   Overcast
8:15 AM 35.6 °F 26.2 °F 28.4 °F 75% 29.64 in 8.0 mi NW 15.0 mph - N/A   Overcast
8:35 AM 35.6 °F 27.1 °F 26.6 °F 70% 29.62 in 5.0 mi NNW 12.7 mph - N/A   Overcast
8:55 AM 33.8 °F 23.9 °F 26.6 °F 75% 29.62 in 3.0 mi NW 15.0 mph - N/A   Overcast
9:15 AM 33.8 °F 25.3 °F 26.6 °F 75% 29.64 in 1.5 mi NW 11.5 mph - N/A   Overcast
9:35 AM 33.8 °F 25.3 °F 26.6 °F 75% 29.65 in 1.5 mi NW 11.5 mph - N/A   Overcast
9:55 AM 33.8 °F 25.3 °F 26.6 °F 75% 29.65 in 2.5 mi NNW 11.5 mph - N/A   Overcast
10:15 AM 33.8 °F 25.3 °F 26.6 °F 75% 29.66 in 3.0 mi NNW 11.5 mph - N/A   Overcast
10:35 AM 33.8 °F 25.8 °F 26.6 °F 75% 29.68 in 3.0 mi NNW 10.4 mph - N/A   Overcast
10:55 AM 33.8 °F 25.8 °F 26.6 °F 75% 29.69 in 2.5 mi NNW 10.4 mph - N/A   Overcast
11:15 AM 33.8 °F 26.4 °F 26.6 °F 75% 29.70 in 2.0 mi NNW 9.2 mph - N/A   Overcast
11:35 AM 33.8 °F 25.8 °F 26.6 °F 75% 29.70 in 2.5 mi NW 10.4 mph - N/A   Overcast
11:55 AM 35.6 °F 28.0 °F 26.6 °F 70% 29.68 in 3.0 mi NNW 10.4 mph - N/A   Overcast
12:15 PM 33.8 °F 24.8 °F 26.6 °F 75% 29.66 in 2.5 mi NNW 12.7 mph - N/A   Overcast
12:35 PM 33.8 °F 25.3 °F 26.6 °F 75% 29.66 in 2.5 mi NNW 11.5 mph - N/A   Overcast
12:55 PM 33.8 °F 25.3 °F 26.6 °F 75% 29.66 in 3.0 mi NNW 11.5 mph - N/A   Overcast
1:15 PM 33.8 °F 25.3 °F 26.6 °F 75% 29.64 in 3.0 mi NNW 11.5 mph - N/A   Overcast
1:35 PM 33.8 °F 25.3 °F 26.6 °F 75% 29.63 in 3.0 mi North 11.5 mph - N/A   Overcast
1:55 PM 33.8 °F 25.3 °F 26.6 °F 75% 29.65 in 3.0 mi North 11.5 mph - N/A   Overcast
2:15 PM 35.6 °F 28.0 °F 26.6 °F 70% 29.65 in 4.0 mi North 10.4 mph - N/A   Overcast
2:35 PM 35.6 °F 28.6 °F 26.6 °F 70% 29.65 in 6.0 mi North 9.2 mph - N/A   Overcast
2:55 PM 35.6 °F 27.5 °F 26.6 °F 70% 29.65 in 5.0 mi North 11.5 mph - N/A   Overcast
3:15 PM 35.6 °F 27.1 °F 26.6 °F 70% 29.66 in 5.0 mi North 12.7 mph - N/A   Overcast
3:35 PM 35.6 °F 26.6 °F 26.6 °F 70% 29.66 in 4.0 mi North 13.8 mph 18.4 mph N/A   Overcast
3:55 PM 35.6 °F 26.6 °F 26.6 °F 70% 29.66 in 4.0 mi NNW 13.8 mph - N/A   Overcast
4:15 PM 35.6 °F 26.6 °F 26.6 °F 70% 29.65 in 5.0 mi North 13.8 mph - N/A   Overcast
4:35 PM 35.6 °F 27.1 °F 26.6 °F 70% 29.66 in 4.0 mi North 12.7 mph - N/A   Overcast
4:55 PM 35.6 °F 28.0 °F 26.6 °F 70% 29.67 in 5.0 mi North 10.4 mph - N/A   Overcast
5:15 PM 33.8 °F 24.8 °F 24.8 °F 70% 29.68 in 5.0 mi North 12.7 mph - N/A   Overcast
5:35 PM 33.8 °F 23.5 °F 24.8 °F 70% 29.69 in 5.0 mi North 16.1 mph - N/A   Overcast
5:55 PM 33.8 °F 24.3 °F 24.8 °F 70% 29.70 in 5.0 mi NNW 13.8 mph - N/A   Overcast
6:15 PM 32.0 °F 21.6 °F 24.8 °F 75% 29.70 in 5.0 mi NNW 15.0 mph - N/A   Overcast
6:35 PM 30.2 °F 18.5 °F 24.8 °F 80% 29.67 in 4.0 mi NNW 17.3 mph - N/A   Overcast
6:55 PM 30.2 °F 18.1 °F 23.0 °F 75% 29.67 in 5.0 mi NNW 18.4 mph - N/A   Overcast
7:15 PM 30.2 °F 18.5 °F 23.0 °F 75% 29.69 in 5.0 mi NNW 17.3 mph - N/A   Overcast
7:35 PM 30.2 °F 18.5 °F 23.0 °F 75% 29.70 in 5.0 mi NNW 17.3 mph - N/A   Overcast
7:55 PM 30.2 °F 18.1 °F 23.0 °F 75% 29.70 in 6.0 mi NNW 18.4 mph - N/A   Overcast
8:15 PM 30.2 °F 18.9 °F 23.0 °F 75% 29.70 in 5.0 mi NNW 16.1 mph - N/A   Overcast
8:55 PM 30.2 °F 18.1 °F 21.2 °F 69% 29.68 in 6.0 mi NNW 18.4 mph - N/A   Overcast
9:15 PM 30.2 °F 18.1 °F 21.2 °F 69% 29.70 in 7.0 mi NNW 18.4 mph 23.0 mph N/A   Overcast
9:35 PM 30.2 °F 18.9 °F 21.2 °F 69% 29.72 in 7.0 mi NNW 16.1 mph 21.9 mph N/A   Overcast
9:55 PM 28.4 °F 16.6 °F 21.2 °F 74% 29.73 in 6.0 mi NNW 16.1 mph 25.3 mph N/A   Overcast
10:15 PM 28.4 °F 16.6 °F 21.2 °F 74% 29.71 in 7.0 mi NNW 16.1 mph - N/A   Overcast
10:35 PM 28.4 °F 17.0 °F 21.2 °F 74% 29.72 in 6.0 mi NNW 15.0 mph - N/A   Overcast
10:55 PM 28.4 °F 15.8 °F 21.2 °F 74% 29.72 in 7.0 mi NNW 18.4 mph 24.2 mph N/A   Overcast
11:15 PM 28.4 °F 15.4 °F 21.2 °F 74% 29.71 in 7.0 mi NNW 19.6 mph 23.0 mph N/A   Overcast
11:35 PM 28.4 °F 15.8 °F 21.2 °F 74% 29.71 in 8.0 mi NNW 18.4 mph 24.2 mph N/A   Overcast
11:55 PM 28.4 °F 15.1 °F 21.2 °F 74% 29.70 in 8.0 mi NNW 20.7 mph 26.5 mph N/A   Overcast